| time (UTC) | temp F | wind direction | speed MPH | gust MPH | rain 1hr in | rain 24hr in | rain mn in | humidity % | barometer mb |
| 20260506061528 | 71 | 279 | 18.0 | 30.0 | 0.00 | 0.00 | 0.00 | 22 | 1007.6 |
| 20260506044513 | 72 | 285 | 18.0 | 30.0 | 0.00 | 0.00 | 0.00 | 20 | 1007.0 |
| 20260506043012 | 72 | 283 | 16.0 | 28.0 | 0.00 | 0.00 | 0.00 | 20 | 1006.8 |
| 20260506041512 | 72 | 274 | 14.0 | 21.0 | 0.00 | 0.00 | 0.00 | 19 | 1006.8 |
| 20260506040032 | 73 | 271 | 16.0 | 21.0 | 0.00 | 0.00 | 0.00 | 18 | 1006.6 |
| 20260506034510 | 73 | 294 | 13.0 | 22.0 | 0.00 | 0.00 | 0.00 | 17 | 1006.3 |
| 20260506033009 | 74 | 292 | 14.0 | 26.0 | 0.00 | 0.00 | 0.00 | 17 | 1006.1 |
| 20260506031521 | 74 | 288 | 13.0 | 23.0 | 0.00 | 0.00 | 0.00 | 18 | 1005.6 |
| 20260506030008 | 75 | 259 | 17.0 | 28.0 | 0.00 | 0.00 | 0.00 | 16 | 1005.3 |
| 20260506024516 | 75 | 266 | 18.0 | 29.0 | 0.00 | 0.00 | 0.00 | 17 | 1005.1 |
| 20260506023006 | 76 | 240 | 19.0 | 27.0 | 0.00 | 0.00 | 0.00 | 19 | 1004.9 |
| 20260506021506 | 76 | 221 | 12.0 | 26.0 | 0.00 | 0.00 | 0.00 | 21 | 1004.6 |
| 20260506020003 | 76 | 269 | 10.0 | 20.0 | 0.00 | 0.00 | 0.00 | 21 | 1004.5 |
| 20260506014503 | 76 | 266 | 14.0 | 27.0 | 0.00 | 0.00 | 0.00 | 19 | 1004.4 |
| 20260506013002 | 77 | 269 | 19.0 | 30.0 | 0.00 | 0.00 | 0.00 | 19 | 1004.2 |
| 20260506011502 | 77 | 268 | 20.0 | 29.0 | 0.00 | 0.00 | 0.00 | 20 | 1004.2 |
| 20260506010101 | 77 | 271 | 17.0 | 29.0 | 0.00 | 0.00 | 0.00 | 19 | 1004.2 |
| 20260506004600 | 77 | 236 | 17.0 | 32.0 | 0.00 | 0.00 | 0.00 | 19 | 1004.0 |
| 20260506003059 | 78 | 261 | 17.0 | 32.0 | 0.00 | 0.00 | 0.00 | 18 | 1003.8 |
| 20260506001558 | 78 | 287 | 18.0 | 34.0 | 0.00 | 0.00 | 0.00 | 19 | 1003.9 |
| 20260506000101 | 78 | 300 | 16.0 | 30.0 | 0.00 | 0.00 | 0.00 | 22 | 1003.8 |
| 20260505234603 | 78 | 291 | 19.0 | 30.0 | 0.00 | 0.00 | 0.00 | 23 | 1003.8 |
| 20260505233108 | 77 | 264 | 15.0 | 23.0 | 0.00 | 0.00 | 0.00 | 27 | 1003.7 |
| 20260505231553 | 77 | 302 | 18.0 | 23.0 | 0.00 | 0.00 | 0.00 | 29 | 1003.8 |
| 20260505230043 | 76 | 309 | 12.0 | 26.0 | 0.00 | 0.00 | 0.00 | 31 | 1003.9 |
| 20260505224541 | 76 | 268 | 16.0 | 25.0 | 0.00 | 0.00 | 0.00 | 31 | 1004.3 |
| 20260505223049 | 76 | 275 | 19.0 | 27.0 | 0.00 | 0.00 | 0.00 | 32 | 1004.5 |
| 20260505221539 | 76 | 294 | 19.0 | 29.0 | 0.00 | 0.00 | 0.00 | 32 | 1004.7 |
| 20260505220041 | 76 | 244 | 19.0 | 29.0 | 0.00 | 0.00 | 0.00 | 31 | 1004.7 |
| 20260505214541 | 75 | 295 | 13.0 | 28.0 | 0.00 | 0.00 | 0.00 | 33 | 1004.7 |
| 20260505213033 | 75 | 296 | 13.0 | 25.0 | 0.00 | 0.00 | 0.00 | 33 | 1005.1 |
| 20260505211531 | 75 | 306 | 16.0 | 22.0 | 0.00 | 0.00 | 0.00 | 33 | 1005.5 |
| 20260505210030 | 75 | 304 | 11.0 | 21.0 | 0.00 | 0.00 | 0.00 | 32 | 1005.8 |
| 20260505204534 | 75 | 279 | 14.0 | 24.0 | 0.00 | 0.00 | 0.00 | 33 | 1006.1 |
| 20260505203031 | 74 | 296 | 12.0 | 22.0 | 0.00 | 0.00 | 0.00 | 34 | 1006.1 |
| 20260505201528 | 74 | 245 | 12.0 | 25.0 | 0.00 | 0.00 | 0.00 | 34 | 1006.4 |
| 20260505200038 | 74 | 302 | 10.0 | 23.0 | 0.00 | 0.00 | 0.00 | 35 | 1006.4 |
| 20260505194527 | 73 | 306 | 16.0 | 23.0 | 0.00 | 0.00 | 0.00 | 36 | 1006.6 |
| 20260505193026 | 74 | 292 | 14.0 | 29.0 | 0.00 | 0.00 | 0.00 | 34 | 1007.0 |
| 20260505191526 | 74 | 259 | 14.0 | 32.0 | 0.00 | 0.00 | 0.00 | 33 | 1007.2 |
| 20260505190034 | 73 | 308 | 21.0 | 31.0 | 0.00 | 0.00 | 0.00 | 33 | 1007.2 |
| 20260505184524 | 74 | 265 | 12.0 | 22.0 | 0.00 | 0.00 | 0.00 | 33 | 1007.1 |
| 20260505183022 | 76 | 295 | 14.0 | 20.0 | 0.00 | 0.00 | 0.00 | 29 | 1007.1 |
| 20260505181521 | 74 | 257 | 12.0 | 26.0 | 0.00 | 0.00 | 0.00 | 31 | 1007.1 |
| 20260505180018 | 75 | 255 | 14.0 | 23.0 | 0.00 | 0.00 | 0.00 | 29 | 1007.3 |
| 20260505174516 | 73 | 266 | 8.0 | 23.0 | 0.00 | 0.00 | 0.00 | 34 | 1007.1 |
| 20260505173015 | 72 | 235 | 9.0 | 16.0 | 0.00 | 0.00 | 0.00 | 36 | 1007.1 |
| 20260505171521 | 70 | 275 | 9.0 | 14.0 | 0.00 | 0.00 | 0.00 | 38 | 1007.0 |
| 20260505170016 | 69 | 283 | 8.0 | 14.0 | 0.00 | 0.00 | 0.00 | 39 | 1007.1 |
| 20260505164511 | 68 | 269 | 8.0 | 11.0 | 0.00 | 0.00 | 0.00 | 40 | 1007.2 |
| 20260505163011 | 68 | 319 | 3.0 | 13.0 | 0.00 | 0.00 | 0.00 | 41 | 1007.1 |
| 20260505161509 | 67 | 355 | 6.0 | 11.0 | 0.00 | 0.00 | 0.00 | 42 | 1007.1 |
| 20260505153006 | 66 | 320 | 8.0 | 13.0 | 0.00 | 0.00 | 0.00 | 44 | 1007.2 |
| 20260505151505 | 65 | 277 | 8.0 | 13.0 | 0.00 | 0.00 | 0.00 | 46 | 1007.3 |
| 20260505130103 | 64 | 309 | 9.0 | 16.0 | 0.00 | 0.00 | 0.00 | 47 | 1007.1 |
| 20260505124540 | 64 | 317 | 6.0 | 13.0 | 0.00 | 0.00 | 0.00 | 45 | 1006.9 |
| 20260505123039 | 64 | 335 | 9.0 | 15.0 | 0.00 | 0.00 | 0.00 | 45 | 1006.7 |
| 20260505121533 | 64 | 318 | 11.0 | 20.0 | 0.00 | 0.00 | 0.00 | 45 | 1006.5 |
| 20260505120030 | 64 | 317 | 9.0 | 20.0 | 0.00 | 0.00 | 0.00 | 45 | 1006.2 |
| 20260505114528 | 65 | 311 | 11.0 | 19.0 | 0.00 | 0.00 | 0.00 | 44 | 1006.2 |
| 20260505113027 | 65 | 312 | 13.0 | 21.0 | 0.00 | 0.00 | 0.00 | 43 | 1006.1 |
| 20260505111534 | 65 | 291 | 13.0 | 18.0 | 0.00 | 0.00 | 0.00 | 43 | 1006.0 |
| 20260505101518 | 66 | 317 | 13.0 | 18.0 | 0.00 | 0.00 | 0.00 | 41 | 1005.6 |
| 20260505100018 | 67 | 303 | 14.0 | 26.0 | 0.00 | 0.00 | 0.00 | 41 | 1005.3 |
| 20260505094515 | 67 | 309 | 12.0 | 18.0 | 0.00 | 0.00 | 0.00 | 40 | 1005.6 |
| 20260505093011 | 67 | 299 | 11.0 | 18.0 | 0.00 | 0.00 | 0.00 | 40 | 1005.5 |
| 20260505091509 | 67 | 314 | 12.0 | 17.0 | 0.00 | 0.00 | 0.00 | 39 | 1005.7 |
| 20260505090005 | 68 | 312 | 9.0 | 18.0 | 0.00 | 0.00 | 0.00 | 38 | 1006.0 |
| 20260505084503 | 68 | 315 | 8.0 | 16.0 | 0.00 | 0.00 | 0.00 | 37 | 1006.3 |
| 20260505083003 | 68 | 314 | 11.0 | 18.0 | 0.00 | 0.00 | 0.00 | 36 | 1006.0 |
| 20260505081615 | 69 | 320 | 12.0 | 20.0 | 0.00 | 0.00 | 0.00 | 35 | 1006.1 |
| 20260505080109 | 69 | 321 | 15.0 | 21.0 | 0.00 | 0.00 | 0.00 | 34 | 1006.3 |
| 20260505074554 | 70 | 291 | 13.0 | 21.0 | 0.00 | 0.00 | 0.00 | 33 | 1006.6 |
| 20260505073052 | 70 | 302 | 18.0 | 24.0 | 0.00 | 0.00 | 0.00 | 31 | 1006.8 |
| 20260505071553 | 71 | 290 | 12.0 | 20.0 | 0.00 | 0.00 | 0.00 | 27 | 1006.8 |